Regional Weather Roundup
Issued by NWS

Home | Current Version | Previous Version | Graphics & Text | Print | Product List | Glossary On
Versions: 1 2 3 4 5 6 7 8 9 10 11 12 13 14 15 16 17 18 19 20 21 22 23 24 25 26 27 28 29 30 31 32 33 34 35 36 37 38 39 40 41 42 43 44 45 46 47 48 49 50
000
ASUS43 KFSD 021110
RWRSD

WEATHER ROUNDUP FOR SOUTH DAKOTA
NATIONAL WEATHER SERVICE SIOUX FALLS SD
600 AM CDT TUE JUN 02 2015

NOTE: "FAIR" INDICATES FEW OR NO CLOUDS BELOW 12,000 FEET WITH NO
SIGNIFICANT WEATHER AND/OR OBSTRUCTIONS TO VISIBILITY.


SDZ001>005-009-010-012>017-021200-
NORTHWEST AND NORTH CENTRAL SOUTH DAKOTA

CITY           SKY/WX    TMP DP  RH WIND       PRES   REMARKS
BUFFALO          N/A     59  55  87 NE10      29.75F
FAITH            N/A     62  55  77 E12       29.78R
MOBRIDGE       CLOUDY    65  63  93 SE7       29.77R
$$

SDZ012>016-024>037-041>051-057-063-072>074-021200-
SOUTHWEST AND SOUTH CENTRAL SOUTH DAKOTA

CITY           SKY/WX    TMP DP  RH WIND       PRES   REMARKS
RAPID CTY ARPT PTCLDY    58  53  84 CALM      29.80S
PIERRE         CLOUDY    64  60  87 S13       29.77S
CUSTER         MOCLDY    61  43  51 SW14G22   29.93S
ELLSWORTH AFB  PTCLDY    65  52  63 NW13      29.79R
PHILIP         CLOUDY    70  53  54 SW15      29.78R
PINE RIDGE     CLEAR     63  50  62 W7        29.86S
SPEARFISH      FAIR      54  50  87 W5        29.86R
WINNER         FAIR      65  58  78 SE15      29.81F
$$

SDZ004>011-016>023-039-040-021200-
NORTHEAST SOUTH DAKOTA

CITY           SKY/WX    TMP DP  RH WIND       PRES   REMARKS
ABERDEEN       CLOUDY    62  53  72 S21G26    29.81F
WATERTOWN      CLOUDY    58  51  78 S15       29.89F
BROOKINGS      MOCLDY    57  48  72 S14G21    29.95F
SISSETON         N/A     62  53  72 S17       29.85S
$$

SDZ017-020-022-023-036>040-048>070-021200-
SOUTHEAST SOUTH DAKOTA

CITY           SKY/WX    TMP DP  RH WIND       PRES   REMARKS
SIOUX FALLS    MOCLDY    60  53  77 S14       29.96F
HURON          MOCLDY    62  54  74 SE15G24   29.84F
CHAMBERLAIN    CLOUDY    61  58  90 SE9       29.82S
MITCHELL       CLOUDY    62  54  74 S16G25    29.88F
YANKTON        MOCLDY    61  54  77 SE15      29.93S
$$

ABBREVIATIONS USED IN REMARKS
   TC - TEMPERATURE IN CELSIUS
  WCI - WIND CHILL INDEX
   HX - HEAT INDEX
  VSB - VISIBILITY




USA.gov is the U.S. government's official web portal to all federal, state and local government web resources and services.